Effective Sunday, March 17, 2024, the National Weather Service National Data Buoy Center will discontinue its Dial-A-Buoy Interactive Voice Response system. For more information, see Service Change Notice 24-06 (PDF).

Station 46014 (LLNR 445) - PT ARENA - 19NM North of Point Arena, CA Image indicating link to RSS feed of recent meteorological observations for station 46014


Conditions at 46014 as of
(8:40 am PST)
1640 GMT on 03/01/2024:
     

Click on the graph icon in the table below to see a time series plot of the last five days of that observation.

5-day plot - Wind Direction Wind Direction (WDIR):WSW ( 240 deg true )
5-day plot - Wind Speed Wind Speed (WSPD): 21.4 kts
5-day plot - Wind Gust Wind Gust (GST): 27.2 kts
5-day plot - Atmospheric Pressure Atmospheric Pressure (PRES):29.83 in
5-day plot - Air Temperature Air Temperature (ATMP): 51.4 °F
5-day plot - Water Temperature Water Temperature (WTMP): 54.9 °F
5-day plot - Dew Point Dew Point (DEWP): 43.5 °F
5-day plot - Wind Chill Wind Chill (CHILL): 44.8 °F
5-day plot - Wind Speed at 10 Meters Wind Speed at 10 meters (WSPD10M): 23.3 kts
5-day plot - Wind Speed at 20 Meters Wind Speed at 20 meters (WSPD20M): 25.3 kts
5-day plot -  Wind Speed, Wind Gust and Atmospheric Pressure Combined plot of Wind Speed, Gust, and Air Pressure
Supplemental Measurements
Highest 1-minute Wind Speed
Time (PST)5-day plot - 1-Minute Wind Speed WSPD 5-day plot - 1-Minute Wind Direction WDIR
8:34 am 23.3 kts-
Previous observations
TIME
(PST)
5-day plot - Wind Direction
WDIR
 
5-day plot - Wind Speed
WSPD
kts
5-day plot - Wind Gust
GST
kts
5-day plot - Wave Height
WVHT
ft
5-day plot - Dominant Wave Period
DPD
sec
5-day plot - Average Wave Period
APD
sec
5-day plot - Mean Wave Direction
MWD
 
5-day plot - Atmospheric Pressure
PRES
in
5-day plot - Pressure Tendency
PTDY
in
5-day plot - Air Temperature
ATMP
°F
5-day plot - Water Temperature
WTMP
°F
5-day plot - Dew Point
DEWP
°F
5-day plot - Salinity
SAL
psu
5-day plot - Visibility
VIS
nmi
5-day plot - Tide (above MLLW)
TIDE
ft
2024-03-01 08:30 amWSW 21.4 25.3----29.83- 50.9 54.7 44.6---
2024-03-01 08:20 amWSW 23.3 31.1 13.1 148.2 NW29.83- 49.6 54.9 44.2---
2024-03-01 08:10 amWSW 25.3 38.9 13.1-8.2 NW29.83- 50.7 54.9 44.8---
2024-03-01 08:00 am SW 19.4 25.3----29.83-0.02 52.0 54.9 46.0---
2024-03-01 07:50 amSSW 21.4 27.2 13.1 128.0 NW29.83- 52.0 54.9 45.9---
2024-03-01 07:40 amSSW 21.4 29.1 13.1-8.0 NW29.83- 52.3 54.9 46.6---
2024-03-01 07:30 amSSW 17.5 25.3----29.82- 52.2 54.9 47.1---
2024-03-01 07:20 amSSW 19.4 27.2 14.4 148.4 NW29.82- 52.2 54.7 46.8---
2024-03-01 07:10 amSSW 19.4 27.2 14.4-8.4 NW29.82- 52.7 54.7 46.9---
2024-03-01 07:00 amSSW 21.4 31.1----29.82-0.02 52.9 54.7 45.9---
2024-03-01 06:50 amSSW 21.4 27.2 13.8 148.7 NW29.83- 53.2 54.9 45.7---
2024-03-01 06:40 am SW 21.4 27.2----29.83- 53.2 54.9 45.5---
2024-03-01 06:30 am SW 19.4 23.3----29.83- 53.2 54.9 46.0---
2024-03-01 06:20 amSSW 19.4 23.3 12.5 148.3 NW29.83- 53.2 54.9 46.2---
2024-03-01 06:10 amSSW 21.4 27.2 12.5-8.3 NW29.83- 52.9 54.9 45.7---
2024-03-01 06:00 am SW 15.5 19.4----29.83-0.04 52.2 54.9 45.9---
2024-03-01 05:50 am SW 15.5 19.4 13.1 148.0 NW29.83- 51.1 54.9 43.3---
2024-03-01 05:40 am SW 15.5 21.4 13.1-8.0 NW29.84- 50.0 54.9 43.5---
2024-03-01 05:30 am SW 17.5 25.3----29.84- 49.1 54.9 43.0---
2024-03-01 05:20 am SW 21.4 35.0 13.5 148.4WNW29.85- 51.3 54.9 45.0---
2024-03-01 05:10 am SW 21.4 25.3 13.5-8.4WNW29.84- 52.7 54.9 45.0---
2024-03-01 05:00 am SW 19.4 25.3----29.85-0.05 52.5 54.9 45.7---
2024-03-01 04:50 amSSW 21.4 27.2 13.5 128.0 W29.85- 52.0 54.9 45.3---
2024-03-01 04:40 amSSW 21.4 25.3----29.84- 51.8 54.9 45.1---
2024-03-01 04:30 amSSW 21.4 29.1----29.84- 51.6 54.9 45.0---
2024-03-01 04:20 amSSW 23.3 29.1 11.5 137.7WNW29.84- 52.0 54.9 44.6---
2024-03-01 04:10 amSSW 21.4 25.3----29.85- 51.4 54.7 43.5---
2024-03-01 04:00 amSSW 21.4 27.2----29.84-0.07 51.4 54.7 45.3---
2024-03-01 03:50 amSSW 21.4 27.2 13.1 118.4WNW29.84- 51.8 54.7 45.1---
2024-03-01 03:40 amSSW 21.4 25.3----29.85- 52.0 54.7 44.6---
2024-03-01 03:30 amSSW 21.4 27.2----29.85- 52.3 54.9 44.1---
2024-03-01 03:20 amSSW 15.5 21.4 13.8 118.8WNW29.85- 51.8 54.9 45.3---
2024-03-01 03:10 amSSW 17.5 23.3 13.8-8.8WNW29.86- 52.2 54.9 45.3---
2024-03-01 03:00 amSSW 17.5 21.4----29.87-0.04 52.5 54.9 45.7---
2024-03-01 02:50 amSSW 15.5 21.4 12.5 138.3WNW29.87- 52.3 54.9 45.9---
2024-03-01 02:40 amSSW 15.5 21.4 12.5-8.3WNW29.87- 52.2 54.9 45.7---
2024-03-01 02:30 amSSW 15.5 21.4----29.88- 52.2 54.9 45.1---
2024-03-01 02:20 am SW 13.6 19.4 13.1 148.4 NW29.88- 51.4 54.9 45.5---
2024-03-01 02:10 am SW 15.5 21.4 13.1-8.4 NW29.89- 51.6 54.9 44.6---
2024-03-01 02:00 amSSW 15.5 19.4----29.90-0.02 52.2 54.9 44.4---
2024-03-01 01:50 amSSW 15.5 19.4 13.5 128.4 NW29.90- 52.0 54.9 45.1---
2024-03-01 01:40 amSSW 13.6 17.5 13.5-8.4 NW29.90- 51.8 54.9 44.6---
2024-03-01 01:30 amSSW 13.6 19.4----29.90- 51.6 54.9 44.1---
2024-03-01 01:20 amSSW 13.6 17.5 12.1 118.2WNW29.91- 51.6 54.9 44.2---
2024-03-01 01:10 am SW 13.6 19.4----29.91- 51.6 54.9 43.9---
2024-03-01 01:00 am SW 13.6 17.5----29.91-0.01 51.6 54.9 43.9---
2024-03-01 12:50 amSSW 13.6 17.5 13.1 128.4 NW29.91- 51.4 54.9 45.0---
2024-03-01 12:40 am SW 13.6 15.5 13.1-8.4 NW29.91- 51.3 54.9 44.6---
2024-03-01 12:30 am SW 11.7 15.5----29.91- 51.4 54.9 45.1---
2024-03-01 12:20 am SW 13.6 17.5 13.8 138.6 NW29.91- 51.4 54.9 44.6---
2024-03-01 12:10 am SW 13.6 17.5 13.8-8.6 NW29.91- 51.6 54.9 43.7---
2024-03-01 12:00 amWSW 15.5 19.4----29.91-0.01 51.6 54.9 43.0---
2024-02-29 11:50 pmWSW 17.5 21.4 14.8 139.0 NW29.91- 51.8 54.9 43.2---
2024-02-29 11:40 pm SW 15.5 19.4----29.91- 51.8 54.9 44.2---
2024-02-29 11:30 pmWSW 13.6 17.5----29.91- 51.3 54.9 44.2---
2024-02-29 11:20 pmWSW 13.6 17.5 14.4 148.9 NW29.91- 51.3 54.9 43.5---
2024-02-29 11:10 pmWSW 13.6 17.5 14.4-8.9 NW29.91- 51.3 54.9 44.4---
2024-02-29 11:00 pmSSW 11.7 15.5----29.91+0.00 50.7 54.9 45.0---
2024-02-29 10:50 pm SW 13.6 17.5 13.1 118.4 NW29.91- 50.2 54.9 45.1---
2024-02-29 10:40 pm SW 13.6 17.5----29.92- 49.6 54.9 45.1---
2024-02-29 10:30 pm SW 13.6 19.4----29.92- 49.3 54.9 44.6---
2024-02-29 10:20 pmWSW 15.5 23.3 14.4 159.0 NW29.92- 49.8 54.9 43.3---
2024-02-29 10:10 pmWSW 15.5 23.3 14.4-9.0 NW29.92- 51.1 54.9 42.6---
2024-02-29 10:00 pm SW 11.7 15.5----29.92+0.01 49.6 54.9 44.2---
2024-02-29 09:50 pmWSW 11.7 15.5 12.5 138.4 NW29.92- 48.6 54.9 44.2---
2024-02-29 09:40 pm W 11.7 17.5----29.93- 48.7 54.9 44.6---
2024-02-29 09:30 pm W 15.5 19.4----29.93- 48.9 54.9 45.0---
2024-02-29 09:20 pmSSW 13.6 19.4 13.5 138.6 NW29.92- 50.0 54.9 46.4---
2024-02-29 09:10 pm SW 11.7 17.5----29.92- 49.8 54.9 45.7---
2024-02-29 09:00 pmWSW 13.6 17.5----29.92+0.02 50.4 54.9 44.6---
2024-02-29 08:50 pm SW 13.6 19.4 12.8 158.5NNW29.92- 51.6 54.9 44.2---
2024-02-29 08:40 pm SW 11.7 17.5----29.91- 51.8 54.9 45.3---
2024-02-29 08:30 pm SW 13.6 19.4----29.91- 51.8 54.9 45.7---
2024-02-29 08:20 pm SW 13.6 19.4 13.5 118.5 NW29.92- 51.8 54.9 45.1---
2024-02-29 08:10 pm SW 11.7 17.5----29.92- 51.4 54.9 45.7---
2024-02-29 08:00 pmWSW 13.6 21.4----29.92+0.00 51.1 54.9 45.5---
2024-02-29 07:50 pmWSW 13.6 21.4 12.8 158.5 NW29.92- 51.4 54.9 45.1---
2024-02-29 07:40 pm SW 13.6 17.5----29.91- 51.6 54.9 45.0---
2024-02-29 07:30 pm SW 13.6 17.5----29.91- 51.4 54.9 44.4---
2024-02-29 07:20 pm SW 15.5 21.4 14.1 148.8NNW29.91- 51.4 54.9 44.6---
2024-02-29 07:10 pm SW 15.5 21.4 14.1-8.8NNW29.91- 50.9 54.9 44.1---
2024-02-29 07:00 pm SW 15.5 19.4----29.91+0.00 50.5 54.9 44.6---
2024-02-29 06:50 pmWSW 15.5 19.4 12.5 128.5 NW29.91- 50.2 54.9 45.5---
2024-02-29 06:40 pmWSW 17.5 23.3----29.91- 49.6 54.9 45.9---
2024-02-29 06:30 pmWSW 21.4 31.1----29.92- 50.9 54.9 45.9---
2024-02-29 06:20 pm SW 13.6 17.5 12.1 158.4NNW29.91- 52.7 54.9 43.5---
2024-02-29 06:10 pm S 9.7 13.6 12.1-8.4NNW29.91- 52.2 54.9 44.8---
2024-02-29 06:00 pm S 9.7 13.6----29.91-0.01 51.8 54.9 43.9---
2024-02-29 05:50 pm S 9.7 13.6 11.8 108.1 NW29.91- 51.8 54.9 43.5---
2024-02-29 05:40 pm S 9.7 13.6----29.91- 51.8 54.9 43.0---
2024-02-29 05:30 pm S 7.8 11.7----29.91- 51.6 54.9 42.4---
2024-02-29 05:20 pmSSW 7.8 11.7 11.2 118.0 NW29.91- 51.4 54.9 41.4---
2024-02-29 05:10 pmSSW 7.8 11.7 11.2-8.0 NW29.91- 51.6 54.9 41.0---
2024-02-29 05:00 pmSSW 9.7 13.6----29.91+0.00 51.4 54.9 41.0---
2024-02-29 04:50 pm SW 11.7 15.5 11.8 117.9 NW29.92- 51.6 54.9 40.1---
2024-02-29 04:40 pmWSW 17.5 23.3----29.91- 51.8 54.9 41.0---
2024-02-29 04:30 pm W 17.5 25.3----29.91- 52.7 54.9 42.4---
2024-02-29 04:20 pmWSW 11.7 15.5 11.8 118.0 NW29.91- 52.3 54.9 43.7---
2024-02-29 04:10 pmWSW 13.6 17.5 11.8-8.0 NW29.91- 51.8 54.9 42.8---
2024-02-29 04:00 pm W 17.5 25.3----29.91+0.00 51.6 54.9 43.2---
2024-02-29 03:50 pm W 17.5 25.3 10.8 107.7 NW29.91- 52.9 54.9 43.2---
2024-02-29 03:00 pmWSW 9.7 15.5 11.2-7.5 NW29.91+0.00 52.0 54.9 44.8---
2024-02-29 02:50 pm W 9.7 17.5 11.2 117.7 NW29.91- 51.6 54.9 45.0---
2024-02-29 02:40 pm W 11.7 19.4 11.2-7.7 NW29.91- 52.7 54.9 43.5---
2024-02-29 02:30 pmWSW 11.7 15.5----29.91- 53.2 54.9 43.9---
2024-02-29 02:20 pmWSW 9.7 13.6 10.5 117.6 NW29.91- 53.2 54.9 44.1---
2024-02-29 02:10 pm W 11.7 15.5 10.5-7.6 NW29.91- 53.2 54.9 44.1---
2024-02-29 02:00 pm W 11.7 15.5----29.91+0.01 53.1 54.9 43.7---
2024-02-29 01:50 pm W 11.7 15.5 12.5 107.9 NW29.91- 53.1 54.9 43.2---
2024-02-29 01:40 pm W 11.7 15.5 12.5-7.9 NW29.91- 52.9 54.9 43.5---
2024-02-29 01:30 pm W 11.7 15.5----29.91- 52.7 54.9 44.1---
2024-02-29 01:20 pm W 13.6 17.5 12.8 117.7 NW29.92- 52.7 54.9 44.8---
2024-02-29 01:10 pm W 13.6 17.5----29.92- 52.5 54.9 45.5---
2024-02-29 01:00 pm W 13.6 19.4----29.92+0.03 52.5 54.9 47.1---
2024-02-29 12:50 pm W 13.6 19.4 13.1 117.8 NW29.92- 52.7 54.9 47.1---
2024-02-29 12:40 pm W 15.5 19.4 13.1-7.8 NW29.92- 52.9 54.9 47.1---
2024-02-29 12:30 pm W 15.5 19.4----29.91- 52.9 54.9 46.8---
2024-02-29 12:20 pm W 17.5 25.3 12.1 117.5WNW29.91- 53.4 54.9 46.0---
2024-02-29 12:10 pm W 17.5 23.3----29.91- 53.1 54.9 46.0---
2024-02-29 12:00 pm W 17.5 25.3----29.91+0.07 52.7 54.9 46.6---
2024-02-29 11:50 am W 19.4 25.3 11.2 117.1 NW29.91- 52.9 54.9 47.1---
2024-02-29 11:40 am W 17.5 27.2----29.91- 53.1 54.9 47.7---
2024-02-29 11:30 am W 15.5 21.4----29.90- 52.9 54.9 48.2---
2024-02-29 11:20 am W 15.5 21.4 12.1 117.3WNW29.90- 52.7 54.9 48.9---
2024-02-29 11:10 am W 17.5 23.3 12.1-7.3WNW29.90- 52.3 54.9 49.5---
2024-02-29 11:00 am W 17.5 23.3----29.90+0.05 52.3 54.9 48.7---
2024-02-29 10:50 am W 17.5 23.3 12.1 117.4 NW29.90- 52.3 54.9 48.2---
2024-02-29 10:40 am W 17.5 21.4----29.90- 52.5 54.9 48.0---
2024-02-29 10:30 am W 17.5 23.3----29.90- 52.3 54.9 47.3---
2024-02-29 10:20 am W 17.5 23.3 12.8 117.3 NW29.89- 51.8 54.9 47.8---
2024-02-29 10:10 am W 15.5 23.3----29.89- 51.1 54.9 48.9---
2024-02-29 10:00 am W 15.5 21.4----29.89+0.04 50.7 54.9 49.3---
2024-02-29 09:50 am W 15.5 21.4 10.8 106.6WNW29.89- 50.2 54.9 49.3---
2024-02-29 09:40 am W 15.5 25.3----29.89- 51.3 54.9 49.6---
2024-02-29 09:30 amSSW 23.3 31.1----29.88- 54.3 54.9 53.1---
2024-02-29 09:20 am S 23.3 31.1 9.8 86.4WNW29.85- 54.3 54.9 52.5---
2024-02-29 09:10 am S 25.3 31.1----29.85- 54.5 54.9 52.3---
2024-02-29 09:00 am S 23.3 31.1----29.84-0.01 54.7 54.9 52.2---
2024-02-29 08:50 am S 25.3 31.1 9.8 106.5 NW29.85- 54.7 54.9 52.3---

Detailed Wave Summary
for 46014 as of (8:10 am PST)
1610 GMT on 03/01/2024:

These wave data are displayed in rounded times.

     

Click on the graph icon in the table below to see a time series plot of the last five days of that observation.

5-day plot - Significant Wave Height Significant Wave Height (WVHT): 13.1 ft
5-day plot - Swell Height Swell Height (SwH): 11.2 ft
5-day plot - Swell Period Swell Period (SwP): 13.8 sec
5-day plot - Swell Direction Swell Direction (SwD): NW
5-day plot - Wind Wave Height Wind Wave Height (WWH): 6.9 ft
5-day plot - Wind Wave Period Wind Wave Period (WWP): 7.1 sec
5-day plot - Wind Wave Direction Wind Wave Direction (WWD): W
5-day plot - Wave Steepness Wave Steepness (STEEPNESS): SWELL
5-day plot - Average Wave Period Average Wave Period (APD): 8.2 sec
Previous observations
TIME
(PST)
5-day plot - Wave Height
WVHT
ft
5-day plot - Swell Height
SwH
ft
5-day plot - Swell Period
SwP
sec
5-day plot - Swell Direction
SwD
 
5-day plot - Wind Wave Height
WWH
ft
5-day plot - Wind Wave Period
WWP
sec
5-day plot - Wind Wave Direction
WWD
 
5-day plot - Wave Steepness
STEEPNESS
 
5-day plot - Average Wave Period
APD
sec
2024-03-01 07:40 am 13.1 10.5 12.1 NW 7.5 7.1 W AVERAGE 8.0
2024-03-01 07:10 am 14.4 11.8 13.8 NW 7.9 6.7 W SWELL 8.4
2024-03-01 06:40 am 13.8 12.1 13.8 NW 6.6 7.1 W SWELL 8.7
2024-03-01 06:10 am 12.5 10.5 13.8 NW 6.9 8.3 WNW SWELL 8.3
2024-03-01 05:40 am 13.1 11.5 13.8 NW 6.6 6.2 WSW SWELL 8.0
2024-03-01 05:10 am 13.5 11.5 13.8WNW 7.2 7.1 W SWELL 8.4
2024-03-01 04:40 am 13.5 11.2 12.1 W 7.2 6.2 WSW AVERAGE 8.0
2024-03-01 04:10 am 11.5 9.5 12.9WNW 6.6 6.7 W SWELL 7.7
2024-03-01 03:40 am 13.1 11.8 11.4WNW 5.2 4.5 WSW AVERAGE 8.4
2024-03-01 03:10 am 13.8 12.1 11.4WNW 6.2 6.2 SW AVERAGE 8.8
2024-03-01 02:40 am 12.5 11.2 12.9WNW 5.2 6.7 W SWELL 8.3
2024-03-01 02:10 am 13.1 11.8 13.8 NW 5.6 6.7 W SWELL 8.4
2024-03-01 01:40 am 13.5 12.8 12.1 NW 4.6 6.2 W AVERAGE 8.4
2024-03-01 01:10 am 12.1 11.5 10.8WNW 4.3 4.5 WSW AVERAGE 8.2
2024-03-01 12:40 am 13.1 12.1 12.1 NW 4.3 5.6 WSW AVERAGE 8.4
2024-03-01 12:10 am 13.8 12.8 12.9 NW 4.6 5.0 WSW SWELL 8.6
2024-02-29 11:40 pm 14.8 13.8 12.9 NW 5.6 5.0 WSW SWELL 9.0
2024-02-29 11:10 pm 14.4 13.8 13.8 NW 3.9 4.5 WSW SWELL 8.9
2024-02-29 10:40 pm 13.1 12.1 11.4 NW 4.6 6.2 W AVERAGE 8.4
2024-02-29 10:10 pm 14.4 13.1 14.8 NW 5.9 6.2 W SWELL 9.0
2024-02-29 09:40 pm 12.5 11.8 12.9 NW 4.3 5.9 WSW SWELL 8.4
2024-02-29 09:10 pm 13.5 12.8 12.9 NW 3.6 5.3 WSW SWELL 8.6
2024-02-29 08:40 pm 12.8 12.1 14.8NNW 4.3 5.6 W SWELL 8.5
2024-02-29 08:10 pm 13.5 12.8 10.8 NW 4.3 5.6 WSW AVERAGE 8.5
2024-02-29 07:40 pm 12.8 11.8 14.8 NW 4.6 5.9 WSW SWELL 8.5
2024-02-29 07:10 pm 14.1 13.1 13.8NNW 5.6 7.1 W SWELL 8.8
2024-02-29 06:40 pm 12.5 10.5 12.1 NW 6.9 5.0 WSW AVERAGE 8.5
2024-02-29 06:10 pm 12.1 11.8 14.8NNW 2.0 3.8 WSW SWELL 8.4
2024-02-29 05:40 pm 11.8 11.5 10.0 NW 2.3 4.0 WNW AVERAGE 8.1
2024-02-29 05:10 pm 11.2 10.8 11.4 NW 2.0 3.4 SW AVERAGE 8.0
2024-02-29 04:40 pm 11.8 10.2 11.4 NW 6.2 7.1 W AVERAGE 7.9
2024-02-29 04:10 pm 11.8 10.8 11.4 NW 4.6 6.2 W AVERAGE 8.0
2024-02-29 03:40 pm 10.8 9.8 10.0 NW 4.6 5.9 SW AVERAGE 7.7
2024-02-29 03:10 pm 11.2 10.5 11.4 NW 3.6 4.8 SW AVERAGE 7.5
2024-02-29 02:40 pm 11.2 10.5 10.8 NW 3.6 5.3 SW AVERAGE 7.7
2024-02-29 02:10 pm 10.5 10.2 11.4 NW 3.3 5.0 WSW AVERAGE 7.6
2024-02-29 01:40 pm 12.5 11.8 10.0 NW 3.9 5.6 SW AVERAGE 7.9
2024-02-29 01:10 pm 12.8 12.1 11.4 NW 4.6 4.5 SSW AVERAGE 7.7
2024-02-29 12:40 pm 13.1 11.2 11.4 NW 6.6 7.1 W AVERAGE 7.8
2024-02-29 12:10 pm 12.1 9.5 11.4WNW 7.5 5.6 WSW AVERAGE 7.5
2024-02-29 11:40 am 11.2 7.9 11.4 NW 7.9 8.3 WNW AVERAGE 7.1
2024-02-29 11:10 am 12.1 9.8 10.8WNW 7.2 6.7 WSW AVERAGE 7.3
2024-02-29 10:40 am 12.1 9.5 10.8 NW 7.5 7.7 WNW AVERAGE 7.4
2024-02-29 10:10 am 12.8 10.2 10.8 NW 7.9 7.1 WSW AVERAGE 7.3
2024-02-29 09:40 am 10.8 8.9 10.0WNW 6.6 5.9 SW AVERAGE 6.6
2024-02-29 09:10 am 9.8 5.9 10.0WNW 7.9 8.3 WNW STEEP 6.4

Plot of wave energy versus frequency (and period)